This is the latest recevied weather packets stored in our database for station/object M0HPP-13. If no packets are shown the sender has not sent any weather packets the latest 10 day(s).
| Time | Temp. | Humidity | Pressure | Rain* | Wind** | Luminosity | Snow |
|---|---|---|---|---|---|---|---|
| 1787464086 | 10.56° C | 95% | 1023.6 hPa | 0 mm | - | 19 W/m² | - |
| 1787463486 | 10° C | 96% | 1023.5 hPa | 0 mm | - | 14 W/m² | - |
| 1787462886 | 10° C | 96% | 1023.4 hPa | 0 mm | - | 9 W/m² | - |
| 1787462286 | 10° C | 96% | 1023.4 hPa | 0 mm | - | 6 W/m² | - |
| 1787461686 | 10° C | 96% | 1023.4 hPa | 0 mm | - | 3 W/m² | - |
| 1787461086 | 10° C | 95% | 1023.3 hPa | 0 mm | - | 2 W/m² | - |
| 1787460486 | 10.56° C | 95% | 1023.3 hPa | 0 mm | - | 1 W/m² | - |
| 1787459887 | 10.56° C | 95% | 1023.3 hPa | 0 mm | - | 0 W/m² | - |
| 1787459286 | 10.56° C | 94% | 1023.2 hPa | 0 mm | - | 0 W/m² | - |
| 1787458686 | 11.11° C | 94% | 1023.2 hPa | 0 mm | - | 0 W/m² | - |
| 1787458086 | 11.67° C | 93% | 1023.2 hPa | 0 mm | - | 0 W/m² | - |
| 1787457486 | 11.67° C | 93% | 1023.2 hPa | 0 mm | - | 0 W/m² | - |
| 1787456886 | 11.67° C | 93% | 1023.2 hPa | 0 mm | - | 0 W/m² | - |
| 1787456286 | 11.67° C | 92% | 1023.2 hPa | 0 mm | - | 0 W/m² | - |
| 1787455686 | 11.67° C | 92% | 1023.1 hPa | 0 mm | - | 0 W/m² | - |
| 1787455086 | 11.67° C | 93% | 1023.1 hPa | 0 mm | - | 0 W/m² | - |
| 1787454486 | 12.22° C | 92% | 1023.1 hPa | 0 mm | - | 0 W/m² | - |
| 1787453886 | 12.22° C | 91% | 1023 hPa | 0 mm | - | 0 W/m² | - |
| 1787453287 | 12.22° C | 90% | 1023.1 hPa | 0 mm | - | 0 W/m² | - |
| 1787452686 | 12.22° C | 90% | 1023.1 hPa | 0 mm | - | 0 W/m² | - |
| 1787452086 | 12.22° C | 91% | 1023.3 hPa | 0 mm | - | 0 W/m² | - |
| 1787451486 | 12.22° C | 93% | 1023.2 hPa | 0 mm | - | 0 W/m² | - |
| 1787450886 | 12.22° C | 94% | 1023.2 hPa | 0 mm | - | 0 W/m² | - |
| 1787450286 | 11.67° C | 95% | 1023.3 hPa | 0 mm | - | 0 W/m² | - |
| 1787449686 | 12.22° C | 95% | 1023.2 hPa | 0 mm | - | 0 W/m² | - |
* Rain latest hour (hover to see other rain measurements)
** Current wind speed in m/s (hover to see current wind gust speed)